Location: ????????
(48.4751°N, 37.6926°E)
Time: 02:40:37
(UTC+00:00)

Iridium 4 Rocket - Pass Details

Date: 20 January 2021
Orbit: 583 x 906 km, 86.9° (Epoch: 24 February)

Event Time Altitude Azimuth Distance (km) Brightness Sun altitude
Rises 16:58:15 0° 354° (N) 3,510 7.0 -27.6°
Reaches altitude 10° 17:00:47 10° 351° (N) 2,540 6.3 -28.0°
Maximum altitude 17:06:25 59° 273° (W) 961 4.1 -28.9°
Drops below altitude 10° 17:11:37 10° 195° (SSW) 2,345 6.1 -29.8°
Sets 17:13:54 0° 191° (SSW) 3,220 6.8 -30.2°
